Location: ???????
(55.0364°N, 37.9561°E)
Time: 20:38:50
(UTC+00:00)

Daily predictions for brighter satellites

Satellite Brightness Start Highest point End
(mag) Time Altitude Azimuth Time Altitude Azimuth Time Altitude Azimuth
ARIANE 5 R/B 2.7 15:05:16 10° SSE 15:10:21 79° WSW 15:15:27 10° NNW
SJ-6F 4.3 15:06:38 10° SSE 15:10:34 77° ENE 15:14:30 10° NNW
SAR-Lupe-1 4.1 15:07:08 10° SSE 15:10:39 57° ENE 15:14:10 10° N
UNK 3.7 15:06:28 10° NNE 15:11:03 78° ESE 15:15:38 10° SSW
CZ-4C R/B 2.2 15:07:52 10° SSW 15:12:06 50° SE 15:17:32 10° NE
Okean 1 Rocket 3.1 15:07:45 10° N 15:12:09 62° ENE 15:16:29 10° SSE
NOSS 3-4 (A) 3.8 15:05:53 10° NW 15:12:18 81° NE 15:19:55 10° SE
NOSS 3-4 (C) 3.8 15:06:09 10° NW 15:12:35 81° NE 15:20:13 10° SE
SL-16 R/B 3.0 15:07:00 10° NNE 15:13:10 69° WNW 15:19:20 10° SSW
USA 290 2.1 15:11:46 10° SSW 15:14:58 86° ESE 15:18:10 10° NNE
Aureole 3 Rocket 2.9 15:15:07 10° N 15:19:10 47° ENE 15:22:22 10° SSE
Okean 2 Rocket 3.0 15:15:33 10° N 15:19:59 82° E 15:24:21 10° SSE
SL-16 R/B 2.8 15:14:54 10° NNW 15:20:11 38° NE 15:25:26 10° ESE
Cosmos 1378 Rocket 3.5 15:17:07 10° S 15:21:25 86° E 15:25:43 10° NNE
BREEZE-M DEB (TANK) 4.3 15:19:30 10° WSW 15:22:25 39° S 15:29:40 10° ESE
SJ-12 4.3 15:18:45 10° S 15:22:31 63° WSW 15:26:18 10° NNW
Cosmos 2227 Rocket 3.6 15:19:21 10° SE 15:22:59 18° E 15:26:39 10° ENE
Cosmos 1315 Rocket 3.7 15:20:05 10° NNW 15:23:48 52° W 15:27:30 10° S
Cosmos 2221 Rocket 3.9 15:22:26 10° SSE 15:26:44 47° E 15:31:05 10° NNE
SAR-Lupe-4 3.5 15:23:14 10° SSE 15:26:48 86° ENE 15:30:25 10° NNW
Cosmos 1025 Rocket 3.0 15:24:43 10° S 15:28:59 61° E 15:33:17 10° NNE
ATLAS 2AS CENTAUR R/B 3.4 15:23:23 10° W 15:30:02 48° NNW 15:36:36 10° NE
Cosmos 2150 Rocket 4.1 15:25:56 10° NNW 15:31:02 54° NE 15:36:03 10° SE
BREEZE-M DEB (TANK) 4.4 15:27:31 10° W 15:31:28 52° S 15:46:01 10° ESE
Cosmos 1346 Rocket 4.5 15:30:01 10° ESE 15:31:09 12° E 15:31:09 12° E
Cosmos 2298 Rocket 4.1 15:29:43 10° NNW 15:34:57 56° NE 15:40:09 10° SE
Cosmos 2123 Rocket 4.4 15:28:57 10° SSW 15:35:15 71° WNW 15:41:34 10° N
Sich 1 Rocket 3.7 15:31:58 10° NNW 15:36:33 86° W 15:41:07 10° S
SKYMED 2 3.6 15:35:44 10° NNE 15:40:04 62° ESE 15:44:23 10° S
GP-B 3.7 15:36:45 10° SSW 15:41:04 60° W 15:45:25 10° N
Resurs 1-3 3.6 15:40:10 10° SSE 15:44:28 83° WSW 15:48:49 10° NNW
BREEZE-M (TANK) 4.1 15:46:36 10° WSW 15:48:47 24° S 15:52:58 10° SE
USA 267 3.3 15:43:08 12° ENE 15:49:16 69° SSE 15:55:48 10° SW
CZ-4B R/B 4.4 15:48:18 15° E 15:50:48 21° NE 15:54:38 10° N
Resurs 01 Rocket 1.6 15:47:17 10° SSE 15:51:36 58° ENE 15:55:58 10° N
ATLAS CENTAUR R/B 2.3 15:49:35 10° NNW 15:51:38 17° NNE 15:52:30 15° NE
Lacrosse 5 rocket 1.0 15:48:29 10° W 15:52:00 73° NNW 15:54:24 20° ENE
BREEZE-M DEB (TANK) 4.5 15:48:16 10° W 15:52:14 36° SSW 15:58:18 10° SE
Radarsat Rocket 4.1 15:47:16 10° SSE 15:53:13 89° WSW 15:59:48 10° NNW
CZ-4 R/B 2.6 15:52:51 18° ENE 15:53:28 19° ENE 15:56:10 10° NNE
Cosmos 1782 3.0 15:53:27 10° N 15:56:51 37° ENE 16:00:12 10° SE
Cosmos 1674 Rocket 4.1 15:54:26 10° SSW 15:58:47 61° WNW 16:03:12 10° N
CSL-04 Rocket 4.2 15:54:41 10° SE 15:59:27 36° ENE 16:04:14 10° N
Cosmos 2344 4.4 15:54:47 10° SSE 16:00:47 25° ESE 16:04:25 17° ENE
Cosmos 2082 Rocket 4.3 15:57:49 10° NW 16:01:34 18° NNW 16:05:21 10° NNE
ERS-1 Rocket 4.2 16:00:19 19° ENE 16:01:46 21° NE 16:05:28 10° N
SL-19 R/B 4.4 15:56:01 10° SSE 16:02:08 87° ENE 16:07:58 10° NNW
CARTOSAT-1 3.5 15:58:40 10° SSE 16:02:53 90° NE 16:07:07 10° NNW
Cosmos 1447 Rocket 4.4 15:59:06 10° S 16:05:14 84° E 16:11:26 10° NNE
Cosmos 2297 Rocket 2.2 16:01:10 10° SSW 16:06:46 67° ESE 16:12:24 10° NE
ARIANE 6 FM1 Upper Stage 2.4 16:03:01 10° NW 16:06:59 75° NNE 16:09:27 22° ESE
Cosmos 1943 3.9 16:01:47 10° NNW 16:07:02 36° NE 16:10:06 21° E
RESURS DK-1 3.4 16:09:55 10° NNW 16:13:21 27° NE 16:14:11 25° ENE
SPOT 5 3.3 16:13:19 14° SE 16:17:17 43° ENE 16:22:10 10° N
IRAS Rocket 4.2 16:12:06 10° SSE 16:17:43 81° ENE 16:23:24 10° NNW
SeaSat 1 4.4 16:14:21 10° S 16:18:39 30° WSW 16:22:59 10° NW
Cosmos 1867 4.3 16:14:11 10° WSW 16:19:29 51° NNW 16:24:10 13° NE
NOSS 3-3 (C) 3.8 16:14:34 10° SW 16:20:01 89° SE 16:25:36 15° NE
Okean O Rocket 3.4 16:24:35 15° NE 16:24:35 15° NE 16:26:25 10° NNE
SJ-6B 2.3 16:21:39 10° SSE 16:25:05 84° ENE 16:28:34 10° NNW
Cosmos 2228 2.9 16:22:24 10° NNW 16:26:37 85° W 16:30:50 10° S
COSMO-SKYMED 1 2.5 16:22:44 10° NNE 16:26:53 80° WNW 16:30:59 10° SSW
PSLV R/B 4.3 16:24:09 10° S 16:28:09 51° W 16:32:10 10° NNW
Cosmos 1544 Rocket 3.5 16:24:23 10° N 16:28:40 56° ENE 16:31:54 17° SSE
Cosmos 1570 Rocket 3.9 16:23:38 10° SSW 16:28:54 82° ESE 16:34:11 10° NNE
Cosmos 2034 Rocket 3.9 16:23:25 10° N 16:29:35 66° ENE 16:35:45 10° SSE
Cosmos 1607 4.3 16:25:38 10° WSW 16:31:43 63° NW 16:36:58 15° NE
Meteor 1-31 Rocket 2.5 16:32:28 49° E 16:32:52 53° ENE 16:36:16 10° N
Cosmos 1455 Rocket 4.1 16:29:25 10° NNW 16:33:32 45° W 16:37:38 10° SSW
Cosmos 2263 Rocket 2.8 16:28:38 10° S 16:33:40 34° ESE 16:34:55 30° E
ADEOS 4.1 16:32:23 31° E 16:33:48 37° ENE 16:38:34 10° N
DMSP B5D1-3 4.4 16:29:01 10° NNE 16:34:08 72° ESE 16:39:15 10° S
Cosmos 1634 Rocket 4.3 16:29:54 10° N 16:36:01 46° ENE 16:39:44 23° SE
Cosmos 2237 Rocket 3.9 16:32:38 10° NW 16:37:41 34° WSW 16:42:43 10° S
Cosmos 1975 Rocket 2.9 16:34:58 10° S 16:39:18 78° E 16:43:38 10° NNE
CZ-4B R/B 3.7 16:37:56 30° SSE 16:39:47 68° ENE 16:43:37 10° N
Feng Yun 1-1 Rocket 4.5 16:41:06 25° SE 16:44:26 55° ENE 16:50:13 10° N
Cosmos 773 Rocket 3.9 16:40:23 10° SSW 16:45:41 86° ESE 16:51:00 10° NNE
Cosmos 972 Rocket 4.0 16:41:08 10° NNW 16:46:02 58° ENE 16:47:52 37° ESE
NOSS 3-3 (A) 4.1 16:41:04 10° WSW 16:46:33 68° NNW 16:51:18 20° NE
PAYLOAD B 4.4 16:44:10 30° SE 16:46:47 54° ENE 16:52:15 10° N
Cosmos 1833 Rocket 4.3 16:46:26 10° NNW 16:50:30 20° NNE 16:51:50 18° NE
Cosmos 2208 Rocket 3.9 16:45:57 10° SSW 16:51:13 88° ESE 16:56:36 10° NNE
Terra 2.4 16:52:47 37° NE 16:52:47 37° NE 16:56:43 10° N
Meteor 2-17 Rocket 4.5 16:47:46 10° SSW 16:53:50 80° WNW 16:59:56 10° N
Cosmos 1464 Rocket 4.4 16:50:18 10° NNW 16:56:37 64° W 17:02:49 10° S
Cosmos 2279 Rocket 4.2 16:51:12 10° N 16:57:09 46° ENE 16:58:26 40° ESE
BREEZE-M DEB (TANK) 4.5 16:41:04 10° WSW 17:00:06 48° S 17:02:54 32° SE
CZ-4C R/B 2.7 16:55:38 10° WSW 17:00:20 53° NNW 17:03:44 24° NE
TSX-5 4.5 16:56:06 10° NW 17:01:27 68° WSW 17:03:18 35° SSE
Cosmos 44 Rocket 3.2 16:57:20 10° SW 17:02:19 83° SE 17:03:58 44° NE
Cosmos 2084 Rocket 4.4 17:00:23 10° NW 17:04:13 33° NNE 17:04:18 33° NNE
SL-16 R/B 2.6 16:59:01 10° NW 17:04:37 61° WSW 17:08:54 17° SSE
Cosmos 1346 Rocket 2.7 17:02:27 10° SSW 17:05:39 66° SW 17:05:39 66° SW
Cosmos 2227 Rocket 2.0 17:00:31 10° SSW 17:06:10 80° ESE 17:09:38 25° NE
MetOp-B 4.0 17:15:56 60° ESE 17:16:34 66° ENE 17:21:54 10° NNW
Cosmos 1420 Rocket 4.2 17:16:59 10° NNW 17:21:43 54° NE 17:21:43 54° NE
ATLAS 2AS CENTAUR R/B 3.4 17:15:47 10° WNW 17:22:15 42° N 17:24:21 34° NE
ATLAS CENTAUR R/B 3.3 17:22:59 10° NW 17:23:42 16° NW 17:23:42 16° NW
CZ-4 R/B 2.0 17:27:51 48° WNW 17:27:51 48° WNW 17:30:54 10° NNW
Resurs 01 Rocket 4.0 17:24:52 10° SW 17:28:19 22° W 17:31:48 10° NW
Lacrosse 5 rocket 2.3 17:25:29 10° WNW 17:27:50 38° WNW 17:27:50 38° WNW
IRS-1A Rocket 4.2 17:29:14 63° ENE 17:29:19 63° ENE 17:34:56 10° NNW
CZ-4B R/B 3.0 17:30:09 72° SE 17:30:42 85° ENE 17:36:03 10° NNW
MOS 1-B 4.4 17:31:41 59° ENE 17:31:41 59° ENE 17:37:12 10° NNW
USA 267 3.2 17:30:29 49° ENE 17:32:26 79° N 17:39:00 10° W
CZ-4B DEB 4.4 17:33:03 33° S 17:35:30 67° WSW 17:40:58 10° NNW
CSL-04 Rocket 4.4 17:35:40 16° S 17:39:40 49° W 17:44:49 10° NNW
ERS-1 Rocket 2.9 17:40:10 81° NW 17:40:10 81° NW 17:44:58 10° NNW
Cosmos 44 4.2 17:36:18 10° NW 17:40:56 44° NNE 17:40:56 44° NNE
ARIANE 6 FM1 Upper Stage 4.5 17:42:26 10° WNW 17:45:29 24° WSW 17:45:29 24° WSW
Cosmos 2082 Rocket 4.1 17:44:09 10° NNW 17:47:57 18° NNE 17:48:32 18° NNE
RESURS DK-1 3.9 17:47:06 10° NW 17:49:28 33° NW 17:49:28 33° NW
Cosmos 2297 Rocket 3.6 17:46:01 10° WSW 17:51:13 36° NW 17:55:14 16° NNE
Cosmos 1943 3.3 17:45:48 10° NW 17:51:29 67° WSW 17:51:55 65° SW
Tsikada Rocket 4.0 17:46:13 10° SSW 17:52:23 77° WNW 17:58:38 10° N
SPOT 5 4.3 17:52:21 19° SSW 17:55:18 37° W 18:00:05 10° NNW
Okean-O 4.5 17:59:48 24° N 17:59:48 24° N 18:01:33 10° NNW
Okean O Rocket 3.4 18:01:49 25° NNW 18:01:49 25° NNW 18:03:40 10° NNW
Spot 2 Rocket 4.5 18:06:26 40° NNW 18:06:26 40° NNW 18:09:40 10° NNW
Iridium 4 Rocket 4.4 18:01:11 10° N 18:04:29 39° NNW 18:04:29 39° NNW
Cosmos 1603 4.0 18:01:37 10° NNW 18:06:13 61° NNW 18:06:13 61° NNW
ADEOS 4.4 18:13:06 47° WSW 18:13:12 47° W 18:18:15 10° NNW
Cosmos 2344 3.3 18:06:35 10° SW 18:14:05 88° SE 18:14:29 82° ENE
Cosmos 2263 Rocket 2.7 18:11:41 10° SW 18:16:41 57° W 18:16:41 57° W
Terra 3.5 18:31:24 31° WNW 18:31:24 31° WNW 18:34:21 10° NNW
USA 281 4.4 18:34:00 32° NNE 18:34:00 32° NNE 18:38:36 10° NNW
Cosmos 1833 Rocket 4.1 18:30:23 10° NNW 18:33:30 30° N 18:33:30 30° N
CZ-4C R/B 3.6 18:44:35 10° WNW 18:48:41 36° NNW 18:48:41 36° NNW
Cosmos 2227 Rocket 3.7 18:45:46 10° W 18:50:48 32° NW 18:51:30 31° NNW
ATLAS 2AS CENTAUR R/B 3.6 19:07:16 10° NW 19:11:46 43° NW 19:11:46 43° NW
USA 267 4.2 19:17:49 43° WNW 19:17:49 43° WNW 19:21:59 10° WNW
Cosmos 2082 Rocket 4.4 19:28:28 10° NNW 19:30:22 20° NNW 19:30:22 20° NNW
CENTAUR R/B 4.3 23:07:19 30° NE 23:07:19 30° NE 23:11:13 10° NE
ACS3 Solar Sail 3.9 23:21:21 10° NNE 23:23:03 20° NNE 23:23:03 20° NNE
SL-16 R/B 4.3 23:43:01 26° NNE 23:43:01 26° NNE 23:46:10 10° N
Cosmos 2369 Rocket 4.3 23:52:33 22° NNE 23:52:33 22° NNE 23:54:29 10° NNE
